Location: Carrer del Canonge
(41.4901°N, 2.2931°E)
Time: 07:12:41
(UTC+00:00)

Cosmos 1975 - Pass Details

Date: 18 September 2020
Orbit: 540 x 563 km, 82.5° (Epoch: 26 October)

Event Time Altitude Azimuth Distance (km) Brightness Sun altitude
Rises 18:42:21 0° 192° (SSW) 2,739 6.4 -9.8°
Reaches altitude 10° 18:44:31 10° 194° (SSW) 1,849 5.5 -10.2°
Maximum altitude 18:48:35 71° 279° (W) 599 3.2 -10.9°
Drops below altitude 10° 18:52:41 10° 3° (N) 1,860 5.6 -11.6°
Sets 18:54:52 0° 6° (N) 2,759 6.5 -12.1°
